This is the latest recevied weather packets stored in our database for station/object K4AMF. If no packets are shown the sender has not sent any weather packets the latest 10 day(s).
| Time | Temp. | Humidity | Pressure | Rain* | Wind** | Luminosity | Snow |
|---|---|---|---|---|---|---|---|
| 1778110168 | 28.89° C | 68% | 1014.8 hPa | 0 mm | - | 27 W/m² | - |
| 1778109865 | 29.44° C | 68% | 1014.8 hPa | 0 mm | - | 35 W/m² | - |
| 1778109560 | 30° C | 68% | 1014.9 hPa | 0 mm | - | 45 W/m² | - |
| 1778109258 | 30° C | 67% | 1014.6 hPa | 0 mm | - | 49 W/m² | - |
| 1778108955 | 30° C | 67% | 1014.5 hPa | 0 mm | - | 57 W/m² | - |
| 1778108652 | 30° C | 65% | 1014.7 hPa | 0 mm | - | 62 W/m² | - |
| 1778108348 | 30.56° C | 64% | 1014.7 hPa | 0 mm | - | 69 W/m² | - |
| 1778108045 | 30.56° C | 63% | 1014.7 hPa | 0 mm | - | 82 W/m² | - |
| 1778107742 | 32.22° C | 59% | 1014.4 hPa | 0 mm | - | 83 W/m² | - |
| 1778107440 | 31.67° C | 51% | 1014.9 hPa | 0 mm | - | 79 W/m² | - |
| 1778107136 | 32.22° C | 50% | 1014.8 hPa | 0 mm | - | 86 W/m² | - |
| 1778106831 | 32.22° C | 50% | 1014.7 hPa | 0 mm | - | 98 W/m² | - |
| 1778106529 | 32.22° C | 49% | 1014.6 hPa | 0 mm | - | 230 W/m² | - |
| 1778106224 | 32.78° C | 49% | 1014.8 hPa | 0 mm | - | 222 W/m² | - |
| 1778105922 | 32.22° C | 50% | 1014.6 hPa | 0 mm | - | 239 W/m² | - |
| 1778105619 | 32.22° C | 50% | 1014.7 hPa | 0 mm | - | 260 W/m² | - |
| 1778105317 | 32.78° C | 50% | 1014.8 hPa | 0 mm | - | 87 W/m² | - |
| 1778105012 | 32.78° C | 48% | 1014.7 hPa | 0 mm | - | 153 W/m² | - |
| 1778104709 | 33.33° C | 46% | 1014.5 hPa | 0 mm | - | 160 W/m² | - |
| 1778104405 | 33.33° C | 46% | 1014.7 hPa | 0 mm | - | 310 W/m² | - |
| 1778104101 | 33.33° C | 46% | 1014.4 hPa | 0 mm | - | 322 W/m² | - |
| 1778103798 | 33.33° C | 47% | 1014.6 hPa | 0 mm | - | 110 W/m² | - |
| 1778103496 | 33.89° C | 45% | 1014.7 hPa | 0 mm | - | 348 W/m² | - |
| 1778103193 | 33.33° C | 46% | 1014.8 hPa | 0 mm | - | 404 W/m² | - |
| 1778102890 | 33.33° C | 46% | 1014.8 hPa | 0 mm | - | 415 W/m² | - |
* Rain latest hour (hover to see other rain measurements)
** Current wind speed in m/s (hover to see current wind gust speed)